Tracking 30744 objects as of 23-Jun-2025
HD Live streaming from Space Station
objects crossing your sky now

INTELSAT 6B (PAS 6B)

Track INTELSAT 6B (PAS 6B) now!
INTELSAT 6B (PAS 6B) is classified as:


NORAD ID: 25585
Int'l Code: 1998-075A
Perigee: 36,037.8 km
Apogee: 36,183.6 km
Inclination: 11.8 °
Period: 1,452.3 minutes
Semi major axis: 42481 km
RCS: 21.1435 m2 (large)
Launch date: December 22, 1998
Source: United States (US)
Launch site: FRENCH GUIANA (FRGUI)

voice and video communcations; 32 Ku-band; South America.
Your satellite tracking list
Your tracking list is empty




NASA's NSSDC Master Catalog

Two Line Element Set (TLE):
1 25585U 98075A   25173.59609198 -.00000115  00000-0  00000-0 0  9997
2 25585  11.7641  33.4953 0017152 154.3255  38.1090  0.99151713 96423
Source of the keplerian elements: AFSPC